{"data":{"norad_id":40082,"epoch":"2026-05-24T17:52:47.985312Z","epoch_age_seconds":104188,"freshness":"FRESH","line1":"1 40082U 14038D   26144.74499983 -.00000024  00000+0  00000+0 0  9995","line2":"2 40082   0.0493 350.1666 0002738  75.1067 294.7545  5.00116027216776","mean_motion":5.00116027,"eccentricity":0.0002738,"inclination_deg":0.0493,"raan_deg":350.1666,"arg_perigee_deg":75.1067,"mean_anomaly_deg":294.7545,"bstar":0,"rev_number":21677,"period_min":287.93318395293,"perigee_km":8061.9252994304,"apogee_km":8069.8348431786,"semimajor_km":14444.017071305,"source":"CELESTRAK","updated_at":"2026-05-25T13:38:14.510058Z"}}